Regional Weather Roundup
Issued by NWS New Orleans/Baton Rouge, LA

Home | Current Version | Previous Version | Text Only | Print | Product List | Glossary On
Versions: 1 2 3 4 5 6 7 8 9 10 11 12 13 14 15 16 17 18 19 20 21 22 23 24 25 26 27 28 29 30 31 32 33 34 35 36 37 38 39 40 41 42 43 44 45 46 47 48 49 50
000
ASUS44 KLIX 201710
RWRLIX
NEW ORLEANS REGIONAL WEATHER ROUNDUP
NATIONAL WEATHER SERVICE NEW ORLEANS LA
1200 PM CDT WED AUG 20 2014

NOTE: "FAIR" INDICATES FEW OR NO CLOUDS BELOW 12,000 FEET WITH NO
      SIGNIFICANT WEATHER AND/OR OBSTRUCTIONS TO VISIBILITY.
      SKY/WX - SKY CONDITION AND SIGNIFICANT WEATHER.
      TMP - AIR TEMPERATURE.     DP    - DEWPOINT TEMPERATURE.
      RH  - RELATIVE HUMIDITY.   PRES  - PRESSURE.
      HI  - HEAT INDEX.          WCI   - WIND CHILL INDEX.

*  THESE STATIONS ARE NOT NWS OR FAA STATIONS AND ARE NOT UNDER
   NWS QUALITY CONTROL.

LAZ038-040-048-061>063-065>067-069-201800-
SOUTHEAST LOUISIANA

CITY           SKY/WX    TMP DP  RH WIND       PRES   REMARKS
N.O. AUDUBON     N/A     98  74  46 MISG        N/A  HX 109
N.O. INTL ARPT PTSUNNY   90  76  63 VRB5      30.08S HX 101
N.O. LAKEFRONT SUNNY     90  77  65 NE8       30.09S HX 103
N.O. DOWNTOWN*   N/A     91  70  49 CALM      30.09S HX  97
SLIDELL        SUNNY     91  71  51 VRB5      30.08S HX  97
BATON ROUGE    PTSUNNY   92  74  55 S7        30.07S HX 101
BOOTHVILLE     SUNNY     89  75  63 SW7       30.10S HX  99
BELLE CHASSE   PTSUNNY   92  72  51 SW6       30.07F HX  99
BOGALUSA*        N/A     91  71  52 W5        30.11S HX  97
GALLIANO*      NOT AVBL
NEW ROADS*     PTSUNNY   89  76  65 CALM      30.07S HX  99
GONZALES*        N/A     91  77  63 E6        30.07S HX 103
HAMMOND*       SUNNY     91  70  49 W5        30.10S HX  97
HOUMA*         MOSUNNY   93  73  52 S7        30.07S HX 102
PORT FOURCHON* PTSUNNY   90  77  66 S9        30.10S HX 102

$$

MSZ070-080>082-201800-
SOUTHERN MISSISSIPPI

CITY           SKY/WX    TMP DP  RH WIND       PRES   REMARKS
MCCOMB         PTSUNNY   89  70  53 MISG      30.10S
GULFPORT       MOSUNNY   89  74  60 VRB3      30.09S HX  98
BILOXI         MOSUNNY   91  75  60 S8        30.09F HX 102
PASCAGOULA     MOSUNNY   91  73  55 VRB5      30.09F HX  99
STENNIS ARPT*  MOSUNNY  N/A N/A N/A S7        30.09S

$$

COASTAL OBSERVATIONS
LAKE AND NEARSHORE STATIONS

STATION/POSITION TIME  TEMP    WIND        PRES    WAVE
                       AIR SEA DIR/SP/G            HT/PER
                 (UTC) (F)     (DEG/KT/KT) (MB)    (FT/S)
PASCAGOULA       1700   88     220/  8/ 10 1018.8
WAVELAND YACHT   1700   86     160/  8/ 10 1018.5
GRAND ISLE       1700   89 87  180/  5/  8 1019.6
SOUTHWEST PASS   1700   89 88  210/  4/  6 1019.6
NEW CANAL        1700   85 84   40/  8/  9 1019.1
SHELL BEACH      1700   88 82  160/  4/  6 1018.9

OFFSHORE STATIONS

STATION/POSITION TIME  TEMP    WIND        PRES    WAVE
                       AIR SEA DIR/SP/G            HT/PER
                 (UTC) (F)     (DEG/KT/KT) (MB)    (FT/S)
64 S DAUPHIN ISL 1608   87 90   50/  2/  2 1019.7

$$



USA.gov is the U.S. government's official web portal to all federal, state and local government web resources and services.